Time,TemperatureF,DewpointF,PressureIn,WindDirection,WindDirectionDegrees,WindSpeedMPH,WindSpeedGustMPH,Humidity,HourlyPrecipIn,Conditions,Clouds,dailyrainin,SoftwareType,DateUTC
2013-09-14 00:00:00,68.9,54.9,29.94,SSE,168,0.0,0.0,61,0.00,,,0.00,Wunderground v.1.15,2013-09-14 04:00:00,
2013-09-14 00:02:00,68.8,54.8,29.94,SSE,165,0.0,1.0,61,0.00,,,0.00,Wunderground v.1.15,2013-09-14 04:02:00,
2013-09-14 00:08:00,68.6,55.1,29.94,SW,221,0.0,1.0,62,0.00,,,0.00,Wunderground v.1.15,2013-09-14 04:08:00,
2013-09-14 00:14:00,68.6,54.2,29.94,South,173,1.0,4.0,60,0.00,,,0.00,Wunderground v.1.15,2013-09-14 04:14:00,
2013-09-14 00:20:00,68.6,54.2,29.95,SSW,200,1.0,1.0,60,0.00,,,0.00,Wunderground v.1.15,2013-09-14 04:20:00,
2013-09-14 00:26:00,68.5,54.5,29.95,SSE,156,1.0,2.0,61,0.00,,,0.00,Wunderground v.1.15,2013-09-14 04:26:00,
2013-09-14 00:32:00,68.4,54.0,29.95,SSE,150,1.0,1.0,60,0.00,,,0.00,Wunderground v.1.15,2013-09-14 04:32:00,
2013-09-14 00:38:00,68.4,53.5,29.95,SE,141,1.0,3.0,59,0.00,,,0.00,Wunderground v.1.15,2013-09-14 04:38:00,
2013-09-14 00:44:00,68.2,54.2,29.95,South,190,1.0,3.0,61,0.00,,,0.00,Wunderground v.1.15,2013-09-14 04:44:00,
2013-09-14 00:50:00,67.9,53.5,29.95,South,186,0.0,3.0,60,0.00,,,0.00,Wunderground v.1.15,2013-09-14 04:50:00,
2013-09-14 00:56:00,67.7,53.8,29.95,ESE,116,0.0,3.0,61,0.00,,,0.00,Wunderground v.1.15,2013-09-14 04:56:00,
2013-09-14 01:02:00,67.5,54.0,29.95,East,93,1.0,3.0,62,0.00,,,0.00,Wunderground v.1.15,2013-09-14 05:02:00,
2013-09-14 01:08:00,67.2,53.7,29.95,SSW,200,0.0,3.0,62,0.00,,,0.00,Wunderground v.1.15,2013-09-14 05:08:00,
2013-09-14 01:14:00,67.0,53.5,29.95,SSW,205,0.0,3.0,62,0.00,,,0.00,Wunderground v.1.15,2013-09-14 05:14:00,
2013-09-14 01:20:00,66.9,53.5,29.95,SSW,210,1.0,3.0,62,0.00,,,0.00,Wunderground v.1.15,2013-09-14 05:20:00,
2013-09-14 01:26:00,66.8,53.4,29.95,East,81,1.0,5.0,62,0.00,,,0.00,Wunderground v.1.15,2013-09-14 05:26:00,
2013-09-14 01:32:00,66.6,53.2,29.95,ENE,70,0.0,3.0,62,0.00,,,0.00,Wunderground v.1.15,2013-09-14 05:32:00,
2013-09-14 01:38:00,66.5,53.1,29.95,ESE,111,1.0,3.0,62,0.00,,,0.00,Wunderground v.1.15,2013-09-14 05:38:00,
2013-09-14 01:44:00,66.4,53.0,29.95,SE,139,1.0,3.0,62,0.00,,,0.00,Wunderground v.1.15,2013-09-14 05:44:00,
2013-09-14 01:50:00,66.3,52.9,29.95,South,176,1.0,3.0,62,0.00,,,0.00,Wunderground v.1.15,2013-09-14 05:50:00,
2013-09-14 01:56:00,66.2,52.8,29.95,SSW,193,2.0,3.0,62,0.00,,,0.00,Wunderground v.1.15,2013-09-14 05:56:00,
2013-09-14 02:02:00,66.1,52.7,29.95,ESE,119,2.0,3.0,62,0.00,,,0.00,Wunderground v.1.15,2013-09-14 06:02:00,
2013-09-14 02:08:00,65.8,52.4,29.95,SW,216,2.0,3.0,62,0.00,,,0.00,Wunderground v.1.15,2013-09-14 06:08:00,
2013-09-14 02:14:00,65.5,53.0,29.96,SE,143,1.0,3.0,64,0.00,,,0.00,Wunderground v.1.15,2013-09-14 06:14:00,
2013-09-14 02:20:00,65.3,52.4,29.96,ENE,59,0.0,3.0,63,0.00,,,0.00,Wunderground v.1.15,2013-09-14 06:20:00,
2013-09-14 02:26:00,65.0,52.5,29.96,ENE,58,1.0,3.0,64,0.00,,,0.00,Wunderground v.1.15,2013-09-14 06:26:00,
2013-09-14 02:32:00,64.8,52.3,29.96,South,186,1.0,3.0,64,0.00,,,0.00,Wunderground v.1.15,2013-09-14 06:32:00,
2013-09-14 02:38:00,64.6,52.1,29.96,South,189,0.0,3.0,64,0.00,,,0.00,Wunderground v.1.15,2013-09-14 06:38:00,
2013-09-14 02:44:00,64.4,52.0,29.96,NE,37,0.0,3.0,64,0.00,,,0.00,Wunderground v.1.15,2013-09-14 06:44:00,
2013-09-14 02:50:00,64.2,51.8,29.96,NNE,20,0.0,3.0,64,0.00,,,0.00,Wunderground v.1.15,2013-09-14 06:50:00,
2013-09-14 02:56:00,64.0,51.6,29.96,SSW,210,0.0,3.0,64,0.00,,,0.00,Wunderground v.1.15,2013-09-14 06:56:00,
2013-09-14 03:02:00,63.8,51.4,29.96,SSW,210,0.0,3.0,64,0.00,,,0.00,Wunderground v.1.15,2013-09-14 07:02:00,
2013-09-14 03:08:00,63.7,51.7,29.97,SSE,149,0.0,3.0,65,0.00,,,0.00,Wunderground v.1.15,2013-09-14 07:08:00,
2013-09-14 03:14:00,63.6,51.6,29.97,SSE,160,0.0,3.0,65,0.00,,,0.00,Wunderground v.1.15,2013-09-14 07:14:00,
2013-09-14 03:20:00,63.5,51.9,29.97,SE,145,0.0,3.0,66,0.00,,,0.00,Wunderground v.1.15,2013-09-14 07:20:00,
2013-09-14 03:26:00,63.3,51.3,29.97,SSE,157,0.0,3.0,65,0.00,,,0.00,Wunderground v.1.15,2013-09-14 07:26:00,
2013-09-14 03:32:00,63.2,51.2,29.97,SSE,151,0.0,3.0,65,0.00,,,0.00,Wunderground v.1.15,2013-09-14 07:32:00,
2013-09-14 03:38:00,63.1,50.7,29.97,South,184,0.0,3.0,64,0.00,,,0.00,Wunderground v.1.15,2013-09-14 07:38:00,
2013-09-14 03:44:00,63.0,50.6,29.97,South,183,0.0,3.0,64,0.00,,,0.00,Wunderground v.1.15,2013-09-14 07:44:00,
2013-09-14 03:50:00,62.9,50.1,29.97,NNW,336,0.0,3.0,63,0.00,,,0.00,Wunderground v.1.15,2013-09-14 07:50:00,
2013-09-14 03:56:00,62.9,50.5,29.97,SE,126,1.0,3.0,64,0.00,,,0.00,Wunderground v.1.15,2013-09-14 07:56:00,
2013-09-14 04:02:00,62.7,50.3,29.97,SE,142,0.0,3.0,64,0.00,,,0.00,Wunderground v.1.15,2013-09-14 08:02:00,
2013-09-14 04:08:00,62.7,50.8,29.97,SE,125,0.0,3.0,65,0.00,,,0.00,Wunderground v.1.15,2013-09-14 08:08:00,
2013-09-14 04:14:00,62.6,50.2,29.97,SE,126,0.0,3.0,64,0.00,,,0.00,Wunderground v.1.15,2013-09-14 08:14:00,
2013-09-14 04:20:00,62.6,50.2,29.97,SSW,210,0.0,3.0,64,0.00,,,0.00,Wunderground v.1.15,2013-09-14 08:20:00,
2013-09-14 04:26:00,62.5,50.2,29.97,South,186,0.0,3.0,64,0.00,,,0.00,Wunderground v.1.15,2013-09-14 08:26:00,
2013-09-14 04:32:00,62.5,50.6,29.97,South,176,0.0,3.0,65,0.00,,,0.00,Wunderground v.1.15,2013-09-14 08:32:00,
2013-09-14 04:38:00,62.3,50.4,29.98,SSW,193,0.0,3.0,65,0.00,,,0.00,Wunderground v.1.15,2013-09-14 08:38:00,
2013-09-14 04:44:00,62.1,50.2,29.98,SSW,192,0.0,3.0,65,0.00,,,0.00,Wunderground v.1.15,2013-09-14 08:44:00,
2013-09-14 04:50:00,62.0,50.5,29.98,SSW,192,0.0,3.0,66,0.00,,,0.00,Wunderground v.1.15,2013-09-14 08:50:00,
2013-09-14 04:56:00,61.8,50.3,29.98,WNW,299,0.0,3.0,66,0.00,,,0.00,Wunderground v.1.15,2013-09-14 08:56:00,
2013-09-14 05:02:00,61.7,50.6,29.98,East,97,0.0,3.0,67,0.00,,,0.00,Wunderground v.1.15,2013-09-14 09:02:00,
2013-09-14 05:08:00,61.5,50.4,29.98,ESE,110,0.0,3.0,67,0.00,,,0.00,Wunderground v.1.15,2013-09-14 09:08:00,
2013-09-14 05:14:00,61.4,50.3,29.98,SSE,157,0.0,3.0,67,0.00,,,0.00,Wunderground v.1.15,2013-09-14 09:14:00,
2013-09-14 05:20:00,61.3,50.6,29.98,ESE,118,0.0,3.0,68,0.00,,,0.00,Wunderground v.1.15,2013-09-14 09:20:00,
2013-09-14 05:26:00,61.1,50.8,29.99,ESE,122,0.0,3.0,69,0.00,,,0.00,Wunderground v.1.15,2013-09-14 09:26:00,
2013-09-14 05:32:00,60.9,50.7,29.99,SE,143,0.0,3.0,69,0.00,,,0.00,Wunderground v.1.15,2013-09-14 09:32:00,
2013-09-14 05:38:00,60.8,50.6,29.99,SE,129,0.0,3.0,69,0.00,,,0.00,Wunderground v.1.15,2013-09-14 09:38:00,
2013-09-14 05:44:00,60.7,50.5,29.99,South,172,0.0,3.0,69,0.00,,,0.00,Wunderground v.1.15,2013-09-14 09:44:00,
2013-09-14 05:50:00,60.7,50.9,29.99,South,172,0.0,3.0,70,0.00,,,0.00,Wunderground v.1.15,2013-09-14 09:50:00,
2013-09-14 05:56:00,60.6,50.4,29.99,South,172,0.0,3.0,69,0.00,,,0.00,Wunderground v.1.15,2013-09-14 09:56:00,
2013-09-14 06:02:00,60.6,50.8,29.99,SE,146,1.0,3.0,70,0.00,,,0.00,Wunderground v.1.15,2013-09-14 10:02:00,
2013-09-14 06:08:00,60.5,50.3,30.00,SE,144,1.0,3.0,69,0.00,,,0.00,Wunderground v.1.15,2013-09-14 10:08:00,
2013-09-14 06:14:00,60.5,50.7,30.00,SSE,147,0.0,3.0,70,0.00,,,0.00,Wunderground v.1.15,2013-09-14 10:14:00,
2013-09-14 06:20:00,60.5,50.7,30.01,South,185,1.0,1.0,70,0.00,,,0.00,Wunderground v.1.15,2013-09-14 10:20:00,
2013-09-14 06:26:00,60.5,50.7,30.01,SE,145,1.0,3.0,70,0.00,,,0.00,Wunderground v.1.15,2013-09-14 10:26:00,
2013-09-14 06:32:00,60.5,50.7,30.01,SSW,196,1.0,3.0,70,0.00,,,0.00,Wunderground v.1.15,2013-09-14 10:32:00,
2013-09-14 06:38:00,60.4,50.6,30.01,South,187,1.0,3.0,70,0.00,,,0.00,Wunderground v.1.15,2013-09-14 10:38:00,
2013-09-14 06:44:00,60.3,50.9,30.02,South,180,1.0,3.0,71,0.00,,,0.00,Wunderground v.1.15,2013-09-14 10:44:00,
2013-09-14 06:50:00,60.2,50.8,30.02,ESE,114,1.0,1.0,71,0.00,,,0.00,Wunderground v.1.15,2013-09-14 10:50:00,
2013-09-14 06:56:00,60.2,50.8,30.02,SSE,158,1.0,3.0,71,0.00,,,0.00,Wunderground v.1.15,2013-09-14 10:56:00,
2013-09-14 07:02:00,60.1,50.7,30.02,SSE,159,1.0,3.0,71,0.00,,,0.00,Wunderground v.1.15,2013-09-14 11:02:00,
2013-09-14 07:08:00,60.0,50.9,30.02,NE,53,1.0,3.0,72,0.00,,,0.00,Wunderground v.1.15,2013-09-14 11:08:00,
2013-09-14 07:14:00,60.1,51.0,30.03,SE,130,2.0,3.0,72,0.00,,,0.00,Wunderground v.1.15,2013-09-14 11:14:00,
2013-09-14 07:20:00,60.0,50.9,30.03,SE,129,1.0,1.0,72,0.00,,,0.00,Wunderground v.1.15,2013-09-14 11:20:00,
2013-09-14 07:26:00,59.9,51.2,30.03,SSE,161,0.0,3.0,73,0.00,,,0.00,Wunderground v.1.15,2013-09-14 11:26:00,
2013-09-14 07:32:00,60.0,51.3,30.03,SSE,166,1.0,3.0,73,0.00,,,0.00,Wunderground v.1.15,2013-09-14 11:32:00,
2013-09-14 07:38:00,60.0,51.3,30.04,SSE,162,1.0,3.0,73,0.00,,,0.00,Wunderground v.1.15,2013-09-14 11:38:00,
2013-09-14 07:44:00,60.1,51.4,30.04,South,178,1.0,3.0,73,0.00,,,0.00,Wunderground v.1.15,2013-09-14 11:44:00,
2013-09-14 07:50:00,60.2,51.5,30.05,WSW,252,1.0,3.0,73,0.00,,,0.00,Wunderground v.1.15,2013-09-14 11:50:00,
2013-09-14 07:56:00,60.4,51.3,30.05,South,186,1.0,5.0,72,0.00,,,0.00,Wunderground v.1.15,2013-09-14 11:56:00,
2013-09-14 08:02:00,60.6,51.5,30.05,SE,135,1.0,3.0,72,0.00,,,0.00,Wunderground v.1.15,2013-09-14 12:02:00,
2013-09-14 08:08:00,60.8,51.7,30.05,SE,146,1.0,4.0,72,0.00,,,0.00,Wunderground v.1.15,2013-09-14 12:08:00,
2013-09-14 08:14:00,61.1,52.0,30.06,East,99,1.0,3.0,72,0.00,,,0.00,Wunderground v.1.15,2013-09-14 12:14:00,
2013-09-14 08:20:00,61.2,52.1,30.06,South,191,2.0,3.0,72,0.00,,,0.00,Wunderground v.1.15,2013-09-14 12:20:00,
2013-09-14 08:26:00,61.4,52.3,30.06,SE,139,1.0,3.0,72,0.00,,,0.00,Wunderground v.1.15,2013-09-14 12:26:00,
2013-09-14 08:32:00,61.8,53.1,30.06,South,184,1.0,3.0,73,0.00,,,0.00,Wunderground v.1.15,2013-09-14 12:32:00,
2013-09-14 08:38:00,62.1,53.0,30.06,WSW,256,1.0,3.0,72,0.00,,,0.00,Wunderground v.1.15,2013-09-14 12:38:00,
2013-09-14 08:44:00,62.1,52.6,30.06,East,89,1.0,3.0,71,0.00,,,0.00,Wunderground v.1.15,2013-09-14 12:44:00,
2013-09-14 08:50:00,62.3,53.2,30.06,SSE,148,1.0,1.0,72,0.00,,,0.00,Wunderground v.1.15,2013-09-14 12:50:00,
2013-09-14 08:56:00,62.8,52.5,30.07,South,175,1.0,3.0,69,0.00,,,0.00,Wunderground v.1.15,2013-09-14 12:56:00,
2013-09-14 09:02:00,62.9,53.0,30.07,SSE,158,1.0,5.0,70,0.00,,,0.00,Wunderground v.1.15,2013-09-14 13:02:00,
2013-09-14 09:08:00,63.2,52.5,30.07,WSW,256,2.0,9.0,68,0.00,,,0.00,Wunderground v.1.15,2013-09-14 13:08:00,
2013-09-14 09:14:00,63.6,52.4,30.07,NNW,335,2.0,3.0,67,0.00,,,0.00,Wunderground v.1.15,2013-09-14 13:14:00,
2013-09-14 09:20:00,63.9,53.1,30.07,SE,131,2.0,2.0,68,0.00,,,0.00,Wunderground v.1.15,2013-09-14 13:20:00,
2013-09-14 09:26:00,64.0,53.2,30.08,SSE,163,2.0,3.0,68,0.00,,,0.00,Wunderground v.1.15,2013-09-14 13:26:00,
2013-09-14 09:32:00,64.5,52.9,30.08,SSE,164,2.0,3.0,66,0.00,,,0.00,Wunderground v.1.15,2013-09-14 13:32:00,
2013-09-14 09:38:00,64.6,53.0,30.08,SE,145,3.0,7.0,66,0.00,,,0.00,Wunderground v.1.15,2013-09-14 13:38:00,
2013-09-14 09:44:00,64.3,52.3,30.08,SE,132,3.0,5.0,65,0.00,,,0.00,Wunderground v.1.15,2013-09-14 13:44:00,
2013-09-14 09:50:00,64.4,52.8,30.08,South,182,3.0,3.0,66,0.00,,,0.00,Wunderground v.1.15,2013-09-14 13:50:00,
2013-09-14 09:56:00,64.7,53.1,30.09,SSE,158,2.0,4.0,66,0.00,,,0.00,Wunderground v.1.15,2013-09-14 13:56:00,
2013-09-14 10:02:00,65.2,53.1,30.09,SSW,196,3.0,4.0,65,0.00,,,0.00,Wunderground v.1.15,2013-09-14 14:02:00,
2013-09-14 10:08:00,65.9,53.4,30.09,South,191,3.0,4.0,64,0.00,,,0.00,Wunderground v.1.15,2013-09-14 14:08:00,
2013-09-14 10:14:00,66.1,53.6,30.09,SSE,158,3.0,4.0,64,0.00,,,0.00,Wunderground v.1.15,2013-09-14 14:14:00,
2013-09-14 10:20:00,66.5,54.4,30.10,SW,232,2.0,3.0,65,0.00,,,0.00,Wunderground v.1.15,2013-09-14 14:20:00,
2013-09-14 10:26:00,67.6,55.0,30.09,SE,133,2.0,5.0,64,0.00,,,0.00,Wunderground v.1.15,2013-09-14 14:26:00,
2013-09-14 10:32:00,68.3,54.8,30.09,SE,141,2.0,5.0,62,0.00,,,0.00,Wunderground v.1.15,2013-09-14 14:32:00,
2013-09-14 10:38:00,68.5,55.4,30.10,SE,143,2.0,5.0,63,0.00,,,0.00,Wunderground v.1.15,2013-09-14 14:38:00,
2013-09-14 10:44:00,68.9,55.3,30.10,WNW,289,2.0,3.0,62,0.00,,,0.00,Wunderground v.1.15,2013-09-14 14:44:00,
2013-09-14 10:50:00,69.0,53.6,30.10,SSE,147,2.0,5.0,58,0.00,,,0.00,Wunderground v.1.15,2013-09-14 14:50:00,
2013-09-14 10:56:00,68.1,53.7,30.10,SE,144,3.0,6.0,60,0.00,,,0.00,Wunderground v.1.15,2013-09-14 14:56:00,
2013-09-14 11:02:00,68.4,54.4,30.10,ENE,73,3.0,5.0,61,0.00,,,0.00,Wunderground v.1.15,2013-09-14 15:02:00,
2013-09-14 11:08:00,68.8,54.8,30.10,South,186,3.0,5.0,61,0.00,,,0.00,Wunderground v.1.15,2013-09-14 15:08:00,
2013-09-14 11:14:00,69.5,55.0,30.10,SE,124,3.0,3.0,60,0.00,,,0.00,Wunderground v.1.15,2013-09-14 15:14:00,
2013-09-14 11:20:00,70.2,55.2,30.10,South,176,2.0,2.0,59,0.00,,,0.00,Wunderground v.1.15,2013-09-14 15:20:00,
2013-09-14 11:26:00,70.5,55.0,30.10,ESE,111,2.0,3.0,58,0.00,,,0.00,Wunderground v.1.15,2013-09-14 15:26:00,
2013-09-14 11:32:00,70.1,54.6,30.10,East,89,2.0,3.0,58,0.00,,,0.00,Wunderground v.1.15,2013-09-14 15:32:00,
2013-09-14 11:38:00,70.8,55.3,30.10,NNE,23,1.0,3.0,58,0.00,,,0.00,Wunderground v.1.15,2013-09-14 15:38:00,
2013-09-14 11:44:00,71.8,57.2,30.10,SSW,195,1.0,3.0,60,0.00,,,0.00,Wunderground v.1.15,2013-09-14 15:44:00,
2013-09-14 11:50:00,72.6,57.0,30.09,WSW,238,1.0,1.0,58,0.00,,,0.00,Wunderground v.1.15,2013-09-14 15:50:00,
2013-09-14 11:56:00,72.7,55.1,30.09,South,174,1.0,3.0,54,0.00,,,0.00,Wunderground v.1.15,2013-09-14 15:56:00,
2013-09-14 12:02:00,72.4,55.3,30.09,ESE,122,2.0,3.0,55,0.00,,,0.00,Wunderground v.1.15,2013-09-14 16:02:00,
2013-09-14 12:08:00,72.2,55.1,30.09,South,174,2.0,3.0,55,0.00,,,0.00,Wunderground v.1.15,2013-09-14 16:08:00,
2013-09-14 12:14:00,72.1,57.4,30.09,West,262,2.0,4.0,60,0.00,,,0.00,Wunderground v.1.15,2013-09-14 16:14:00,
2013-09-14 12:20:00,72.9,58.2,30.10,NE,47,2.0,3.0,60,0.00,,,0.00,Wunderground v.1.15,2013-09-14 16:20:00,
2013-09-14 12:26:00,72.8,56.2,30.09,West,270,2.0,4.0,56,0.00,,,0.00,Wunderground v.1.15,2013-09-14 16:26:00,
2013-09-14 12:32:00,72.9,55.8,30.09,ESE,115,3.0,3.0,55,0.00,,,0.00,Wunderground v.1.15,2013-09-14 16:32:00,
2013-09-14 12:38:00,73.2,55.6,30.09,West,271,2.0,6.0,54,0.00,,,0.00,Wunderground v.1.15,2013-09-14 16:38:00,
2013-09-14 12:44:00,73.7,57.0,30.09,WSW,251,2.0,3.0,56,0.00,,,0.00,Wunderground v.1.15,2013-09-14 16:44:00,
2013-09-14 12:50:00,74.0,56.3,30.09,SW,220,2.0,2.0,54,0.00,,,0.00,Wunderground v.1.15,2013-09-14 16:50:00,
2013-09-14 12:56:00,74.1,58.4,30.09,NNE,31,2.0,3.0,58,0.00,,,0.00,Wunderground v.1.15,2013-09-14 16:56:00,
2013-09-14 13:02:00,74.2,57.0,30.09,East,81,2.0,3.0,55,0.00,,,0.00,Wunderground v.1.15,2013-09-14 17:02:00,
2013-09-14 13:08:00,74.5,56.2,30.09,South,173,2.0,3.0,53,0.00,,,0.00,Wunderground v.1.15,2013-09-14 17:08:00,
2013-09-14 13:14:00,75.0,58.2,30.09,SSW,195,2.0,3.0,56,0.00,,,0.00,Wunderground v.1.15,2013-09-14 17:14:00,
2013-09-14 13:20:00,74.8,57.5,30.09,SE,124,2.0,6.0,55,0.00,,,0.00,Wunderground v.1.15,2013-09-14 17:20:00,
2013-09-14 13:26:00,74.6,56.3,30.09,SSE,162,2.0,6.0,53,0.00,,,0.00,Wunderground v.1.15,2013-09-14 17:26:00,
2013-09-14 13:32:00,74.8,57.5,30.09,South,182,2.0,3.0,55,0.00,,,0.00,Wunderground v.1.15,2013-09-14 17:32:00,
2013-09-14 13:38:00,75.0,58.2,30.09,WNW,301,2.0,3.0,56,0.00,,,0.00,Wunderground v.1.15,2013-09-14 17:38:00,
2013-09-14 13:44:00,75.5,59.2,30.09,East,96,2.0,3.0,57,0.00,,,0.00,Wunderground v.1.15,2013-09-14 17:44:00,
2013-09-14 13:50:00,75.9,58.6,30.09,SSE,162,1.0,1.0,55,0.00,,,0.00,Wunderground v.1.15,2013-09-14 17:50:00,
2013-09-14 13:56:00,76.3,59.4,30.09,SSE,158,1.0,3.0,56,0.00,,,0.00,Wunderground v.1.15,2013-09-14 17:56:00,
2013-09-14 14:02:00,76.7,59.3,30.08,NE,42,2.0,3.0,55,0.00,,,0.00,Wunderground v.1.15,2013-09-14 18:02:00,
2013-09-14 14:08:00,76.5,57.0,30.08,ESE,123,2.0,4.0,51,0.00,,,0.00,Wunderground v.1.15,2013-09-14 18:08:00,
2013-09-14 14:14:00,76.2,56.7,30.08,SE,124,2.0,3.0,51,0.00,,,0.00,Wunderground v.1.15,2013-09-14 18:14:00,
2013-09-14 14:20:00,75.8,58.0,30.08,SSE,165,2.0,2.0,54,0.00,,,0.00,Wunderground v.1.15,2013-09-14 18:20:00,
2013-09-14 14:26:00,76.1,59.3,30.08,South,176,1.0,3.0,56,0.00,,,0.00,Wunderground v.1.15,2013-09-14 18:26:00,
2013-09-14 14:32:00,76.6,58.2,30.08,West,264,1.0,3.0,53,0.00,,,0.00,Wunderground v.1.15,2013-09-14 18:32:00,
2013-09-14 14:38:00,76.7,57.2,30.08,SSW,192,2.0,5.0,51,0.00,,,0.00,Wunderground v.1.15,2013-09-14 18:38:00,
2013-09-14 14:44:00,76.7,57.7,30.08,NE,47,2.0,3.0,52,0.00,,,0.00,Wunderground v.1.15,2013-09-14 18:44:00,
2013-09-14 14:50:00,77.0,58.0,30.07,NW,316,1.0,3.0,52,0.00,,,0.00,Wunderground v.1.15,2013-09-14 18:50:00,
2013-09-14 14:56:00,77.0,59.1,30.08,SE,139,2.0,4.0,54,0.00,,,0.00,Wunderground v.1.15,2013-09-14 18:56:00,
2013-09-14 15:02:00,77.3,58.8,30.07,WNW,295,1.0,3.0,53,0.00,,,0.00,Wunderground v.1.15,2013-09-14 19:02:00,
2013-09-14 15:08:00,77.7,59.7,30.07,ESE,116,1.0,4.0,54,0.00,,,0.00,Wunderground v.1.15,2013-09-14 19:08:00,
2013-09-14 15:14:00,78.0,58.9,30.07,WSW,258,1.0,3.0,52,0.00,,,0.00,Wunderground v.1.15,2013-09-14 19:14:00,
2013-09-14 15:20:00,78.0,59.5,30.07,West,260,2.0,4.0,53,0.00,,,0.00,Wunderground v.1.15,2013-09-14 19:20:00,
2013-09-14 15:26:00,77.5,58.5,30.07,NE,45,2.0,4.0,52,0.00,,,0.00,Wunderground v.1.15,2013-09-14 19:26:00,
2013-09-14 15:32:00,77.5,58.5,30.06,West,265,2.0,3.0,52,0.00,,,0.00,Wunderground v.1.15,2013-09-14 19:32:00,
2013-09-14 15:38:00,77.7,59.7,30.06,ESE,103,2.0,3.0,54,0.00,,,0.00,Wunderground v.1.15,2013-09-14 19:38:00,
2013-09-14 15:44:00,78.2,59.1,30.06,SSE,164,1.0,3.0,52,0.00,,,0.00,Wunderground v.1.15,2013-09-14 19:44:00,
2013-09-14 15:50:00,78.6,59.5,30.06,SW,218,1.0,1.0,52,0.00,,,0.00,Wunderground v.1.15,2013-09-14 19:50:00,
2013-09-14 15:56:00,78.7,60.7,30.06,WSW,247,1.0,3.0,54,0.00,,,0.00,Wunderground v.1.15,2013-09-14 19:56:00,
2013-09-14 16:02:00,78.8,60.2,30.06,SSW,210,2.0,3.0,53,0.00,,,0.00,Wunderground v.1.15,2013-09-14 20:02:00,
2013-09-14 16:08:00,78.3,58.1,30.06,SW,226,2.0,3.0,50,0.00,,,0.00,Wunderground v.1.15,2013-09-14 20:08:00,
2013-09-14 16:14:00,78.2,59.1,30.06,SSE,160,1.0,3.0,52,0.00,,,0.00,Wunderground v.1.15,2013-09-14 20:14:00,
2013-09-14 16:20:00,78.5,59.4,30.06,SSE,166,1.0,1.0,52,0.00,,,0.00,Wunderground v.1.15,2013-09-14 20:20:00,
2013-09-14 16:26:00,78.5,58.9,30.06,SSE,161,1.0,3.0,51,0.00,,,0.00,Wunderground v.1.15,2013-09-14 20:26:00,
2013-09-14 16:32:00,78.7,59.6,30.06,SE,138,1.0,3.0,52,0.00,,,0.00,Wunderground v.1.15,2013-09-14 20:32:00,
2013-09-14 16:38:00,78.8,58.6,30.06,South,187,1.0,3.0,50,0.00,,,0.00,Wunderground v.1.15,2013-09-14 20:38:00,
2013-09-14 16:44:00,78.7,58.5,30.06,East,90,1.0,3.0,50,0.00,,,0.00,Wunderground v.1.15,2013-09-14 20:44:00,
2013-09-14 16:50:00,78.5,59.4,30.06,SSW,192,1.0,3.0,52,0.00,,,0.00,Wunderground v.1.15,2013-09-14 20:50:00,
2013-09-14 16:56:00,78.4,58.8,30.06,SE,144,0.0,3.0,51,0.00,,,0.00,Wunderground v.1.15,2013-09-14 20:56:00,
2013-09-14 17:02:00,78.3,58.7,30.06,South,179,0.0,3.0,51,0.00,,,0.00,Wunderground v.1.15,2013-09-14 21:02:00,
2013-09-14 17:08:00,78.0,58.9,30.06,ENE,60,1.0,3.0,52,0.00,,,0.00,Wunderground v.1.15,2013-09-14 21:08:00,
2013-09-14 17:14:00,77.5,58.5,30.06,SSW,193,1.0,3.0,52,0.00,,,0.00,Wunderground v.1.15,2013-09-14 21:14:00,
2013-09-14 17:20:00,77.2,58.7,30.06,SE,146,1.0,3.0,53,0.00,,,0.00,Wunderground v.1.15,2013-09-14 21:20:00,
2013-09-14 17:26:00,77.1,58.6,30.06,SSW,193,1.0,3.0,53,0.00,,,0.00,Wunderground v.1.15,2013-09-14 21:26:00,
2013-09-14 17:32:00,76.8,58.9,30.07,West,270,1.0,3.0,54,0.00,,,0.00,Wunderground v.1.15,2013-09-14 21:32:00,
2013-09-14 17:38:00,76.5,58.6,30.07,WSW,249,1.0,3.0,54,0.00,,,0.00,Wunderground v.1.15,2013-09-14 21:38:00,
2013-09-14 17:44:00,76.5,59.1,30.07,South,191,1.0,3.0,55,0.00,,,0.00,Wunderground v.1.15,2013-09-14 21:44:00,
2013-09-14 17:50:00,76.4,59.0,30.07,SSE,164,1.0,3.0,55,0.00,,,0.00,Wunderground v.1.15,2013-09-14 21:50:00,
2013-09-14 17:56:00,76.3,58.9,30.07,SW,227,1.0,3.0,55,0.00,,,0.00,Wunderground v.1.15,2013-09-14 21:56:00,
2013-09-14 18:02:00,76.2,58.3,30.07,ESE,122,1.0,3.0,54,0.00,,,0.00,Wunderground v.1.15,2013-09-14 22:02:00,
2013-09-14 18:08:00,76.1,58.2,30.08,West,260,1.0,3.0,54,0.00,,,0.00,Wunderground v.1.15,2013-09-14 22:08:00,
2013-09-14 18:14:00,75.9,58.6,30.08,WSW,256,1.0,3.0,55,0.00,,,0.00,Wunderground v.1.15,2013-09-14 22:14:00,
2013-09-14 18:20:00,75.7,58.9,30.08,South,177,1.0,1.0,56,0.00,,,0.00,Wunderground v.1.15,2013-09-14 22:20:00,
2013-09-14 18:26:00,75.6,58.8,30.08,WSW,252,0.0,3.0,56,0.00,,,0.00,Wunderground v.1.15,2013-09-14 22:26:00,
2013-09-14 18:32:00,75.4,59.1,30.08,SSE,163,0.0,3.0,57,0.00,,,0.00,Wunderground v.1.15,2013-09-14 22:32:00,
2013-09-14 18:38:00,75.2,58.4,30.08,West,266,1.0,4.0,56,0.00,,,0.00,Wunderground v.1.15,2013-09-14 22:38:00,
2013-09-14 18:44:00,75.0,59.2,30.08,West,260,1.0,3.0,58,0.00,,,0.00,Wunderground v.1.15,2013-09-14 22:44:00,
2013-09-14 18:50:00,74.8,59.5,30.08,SW,220,0.0,3.0,59,0.00,,,0.00,Wunderground v.1.15,2013-09-14 22:50:00,
2013-09-14 18:56:00,74.6,59.3,30.08,SW,223,0.0,3.0,59,0.00,,,0.00,Wunderground v.1.15,2013-09-14 22:56:00,
2013-09-14 19:02:00,74.3,59.5,30.08,SW,223,0.0,3.0,60,0.00,,,0.00,Wunderground v.1.15,2013-09-14 23:02:00,
2013-09-14 19:08:00,73.9,59.1,30.08,WSW,257,0.0,3.0,60,0.00,,,0.00,Wunderground v.1.15,2013-09-14 23:08:00,
2013-09-14 19:14:00,73.5,59.2,30.08,SW,230,1.0,3.0,61,0.00,,,0.00,Wunderground v.1.15,2013-09-14 23:14:00,
2013-09-14 19:20:00,73.1,59.3,30.09,SW,218,0.0,3.0,62,0.00,,,0.00,Wunderground v.1.15,2013-09-14 23:20:00,
2013-09-14 19:26:00,72.8,59.5,30.09,SW,218,0.0,3.0,63,0.00,,,0.00,Wunderground v.1.15,2013-09-14 23:26:00,
2013-09-14 19:32:00,72.4,59.5,30.09,SW,218,0.0,3.0,64,0.00,,,0.00,Wunderground v.1.15,2013-09-14 23:32:00,
2013-09-14 19:38:00,71.9,59.5,30.09,SW,218,0.0,3.0,65,0.00,,,0.00,Wunderground v.1.15,2013-09-14 23:38:00,
2013-09-14 19:44:00,71.5,59.5,30.10,SSE,153,0.0,3.0,66,0.00,,,0.00,Wunderground v.1.15,2013-09-14 23:44:00,
2013-09-14 19:50:00,71.0,59.5,30.10,SSE,153,0.0,3.0,67,0.00,,,0.00,Wunderground v.1.15,2013-09-14 23:50:00,
2013-09-14 19:56:00,70.6,59.1,30.10,SSE,153,0.0,3.0,67,0.00,,,0.00,Wunderground v.1.15,2013-09-14 23:56:00,
2013-09-14 20:02:00,70.1,59.5,30.10,SSE,153,0.0,3.0,69,0.00,,,0.00,Wunderground v.1.15,2013-09-15 00:02:00,
2013-09-14 20:08:00,69.6,59.4,30.10,SSE,153,0.0,3.0,70,0.00,,,0.00,Wunderground v.1.15,2013-09-15 00:08:00,
2013-09-14 20:14:00,69.1,59.3,30.11,SSE,153,0.0,3.0,71,0.00,,,0.00,Wunderground v.1.15,2013-09-15 00:14:00,
2013-09-14 20:20:00,68.6,59.2,30.10,SSE,153,0.0,3.0,72,0.00,,,0.00,Wunderground v.1.15,2013-09-15 00:20:00,
2013-09-14 20:26:00,68.2,59.2,30.11,SSE,153,0.0,3.0,73,0.00,,,0.00,Wunderground v.1.15,2013-09-15 00:26:00,
2013-09-14 20:32:00,67.9,59.3,30.11,SSE,153,0.0,3.0,74,0.00,,,0.00,Wunderground v.1.15,2013-09-15 00:32:00,
2013-09-14 20:38:00,67.6,59.0,30.12,SSE,153,0.0,3.0,74,0.00,,,0.00,Wunderground v.1.15,2013-09-15 00:38:00,
2013-09-14 20:44:00,67.3,59.1,30.12,SSE,153,0.0,3.0,75,0.00,,,0.00,Wunderground v.1.15,2013-09-15 00:44:00,
2013-09-14 20:50:00,67.1,58.9,30.12,SSE,153,0.0,3.0,75,0.00,,,0.00,Wunderground v.1.15,2013-09-15 00:50:00,
2013-09-14 20:56:00,67.0,58.8,30.13,SSE,153,0.0,3.0,75,0.00,,,0.00,Wunderground v.1.15,2013-09-15 00:56:00,
2013-09-14 21:02:00,66.8,59.0,30.13,SSE,153,0.0,3.0,76,0.00,,,0.00,Wunderground v.1.15,2013-09-15 01:02:00,
2013-09-14 21:08:00,66.7,58.9,30.13,SSE,153,0.0,3.0,76,0.00,,,0.00,Wunderground v.1.15,2013-09-15 01:08:00,
2013-09-14 21:14:00,66.5,58.7,30.14,SSE,153,0.0,3.0,76,0.00,,,0.00,Wunderground v.1.15,2013-09-15 01:14:00,
2013-09-14 21:20:00,66.3,58.9,30.13,SSE,153,0.0,3.0,77,0.00,,,0.00,Wunderground v.1.15,2013-09-15 01:20:00,
2013-09-14 21:26:00,66.3,58.9,30.14,SSE,153,0.0,3.0,77,0.00,,,0.00,Wunderground v.1.15,2013-09-15 01:26:00,
2013-09-14 21:32:00,66.3,58.9,30.14,SSE,153,0.0,3.0,77,0.00,,,0.00,Wunderground v.1.15,2013-09-15 01:32:00,
2013-09-14 21:38:00,66.3,58.5,30.14,WSW,245,0.0,3.0,76,0.00,,,0.00,Wunderground v.1.15,2013-09-15 01:38:00,
2013-09-14 21:44:00,66.4,58.6,30.14,WSW,245,0.0,3.0,76,0.00,,,0.00,Wunderground v.1.15,2013-09-15 01:44:00,
2013-09-14 21:50:00,66.4,58.6,30.14,SW,223,0.0,3.0,76,0.00,,,0.00,Wunderground v.1.15,2013-09-15 01:50:00,
2013-09-14 21:56:00,66.5,58.7,30.14,SW,223,0.0,3.0,76,0.00,,,0.00,Wunderground v.1.15,2013-09-15 01:56:00,
2013-09-14 22:02:00,66.5,58.7,30.15,SW,220,0.0,3.0,76,0.00,,,0.00,Wunderground v.1.15,2013-09-15 02:02:00,
2013-09-14 22:08:00,66.4,58.6,30.15,SW,220,0.0,3.0,76,0.00,,,0.00,Wunderground v.1.15,2013-09-15 02:08:00,
2013-09-14 22:14:00,66.3,58.5,30.15,SW,218,0.0,3.0,76,0.00,,,0.00,Wunderground v.1.15,2013-09-15 02:14:00,
2013-09-14 22:20:00,66.2,58.4,30.15,SW,218,0.0,3.0,76,0.00,,,0.00,Wunderground v.1.15,2013-09-15 02:20:00,
2013-09-14 22:26:00,66.1,58.3,30.15,WSW,250,0.0,3.0,76,0.00,,,0.00,Wunderground v.1.15,2013-09-15 02:26:00,
2013-09-14 22:32:00,66.0,58.2,30.15,WSW,250,0.0,3.0,76,0.00,,,0.00,Wunderground v.1.15,2013-09-15 02:32:00,
2013-09-14 22:38:00,65.9,58.1,30.15,WSW,252,0.0,3.0,76,0.00,,,0.00,Wunderground v.1.15,2013-09-15 02:38:00,
2013-09-14 22:44:00,65.8,58.0,30.15,WSW,252,0.0,3.0,76,0.00,,,0.00,Wunderground v.1.15,2013-09-15 02:44:00,
2013-09-14 22:50:00,65.7,58.3,30.15,WSW,252,0.0,3.0,77,0.00,,,0.00,Wunderground v.1.15,2013-09-15 02:50:00,
2013-09-14 22:56:00,65.6,58.2,30.16,WSW,241,0.0,3.0,77,0.00,,,0.00,Wunderground v.1.15,2013-09-15 02:56:00,
2013-09-14 23:02:00,65.4,58.0,30.15,WSW,241,0.0,3.0,77,0.00,,,0.00,Wunderground v.1.15,2013-09-15 03:02:00,
2013-09-14 23:08:00,65.3,57.9,30.15,WSW,245,0.0,3.0,77,0.00,,,0.00,Wunderground v.1.15,2013-09-15 03:08:00,
2013-09-14 23:14:00,65.2,57.8,30.15,WSW,245,0.0,3.0,77,0.00,,,0.00,Wunderground v.1.15,2013-09-15 03:14:00,
2013-09-14 23:20:00,65.1,58.1,30.16,WSW,247,0.0,3.0,78,0.00,,,0.00,Wunderground v.1.15,2013-09-15 03:20:00,
2013-09-14 23:26:00,64.9,57.9,30.16,WSW,247,0.0,3.0,78,0.00,,,0.00,Wunderground v.1.15,2013-09-15 03:26:00,
2013-09-14 23:32:00,64.8,57.8,30.16,WSW,247,0.0,3.0,78,0.00,,,0.00,Wunderground v.1.15,2013-09-15 03:32:00,
2013-09-14 23:38:00,64.7,57.7,30.16,SSE,155,0.0,3.0,78,0.00,,,0.00,Wunderground v.1.15,2013-09-15 03:38:00,
2013-09-14 23:44:00,64.6,57.6,30.16,West,277,0.0,3.0,78,0.00,,,0.00,Wunderground v.1.15,2013-09-15 03:44:00,
2013-09-14 23:50:00,64.5,57.5,30.16,West,277,0.0,3.0,78,0.00,,,0.00,Wunderground v.1.15,2013-09-15 03:50:00,
2013-09-14 23:56:00,64.4,57.4,30.16,West,266,0.0,3.0,78,0.00,,,0.00,Wunderground v.1.15,2013-09-15 03:56:00,